TimeCST,TemperatureF,Dew PointF,Humidity,Sea Level PressureIn,VisibilityMPH,Wind Direction,Wind SpeedMPH,Gust SpeedMPH,PrecipitationIn,Events,Conditions,WindDirDegrees,DateUTC
12:15 AM,22.1,19.6,90,29.94,4.0,ENE,9.2,-,N/A,,Overcast,60,2013-12-20 06:15:00
12:57 AM,21.2,17.6,86,29.97,5.0,ENE,9.2,18.4,N/A,,Overcast,60,2013-12-20 06:57:00
1:16 AM,21.2,17.6,86,29.95,5.0,East,9.2,17.3,N/A,,Overcast,80,2013-12-20 07:16:00
1:36 AM,21.2,19.4,93,29.95,4.0,NNE,9.2,-,N/A,,Overcast,30,2013-12-20 07:36:00
1:56 AM,19.4,17.6,93,29.95,7.0,NE,11.5,-,N/A,,Overcast,50,2013-12-20 07:56:00
2:15 AM,19.9,17.6,91,29.95,10.0,NE,9.2,-,N/A,,Overcast,50,2013-12-20 08:15:00
2:35 AM,19.8,17.1,89,29.94,10.0,NE,10.4,-,N/A,,Overcast,50,2013-12-20 08:35:00
2:55 AM,19.4,17.2,91,29.93,10.0,NE,8.1,-,N/A,,Overcast,50,2013-12-20 08:55:00
3:15 AM,19.4,17.1,91,29.94,10.0,NE,9.2,-,N/A,,Overcast,50,2013-12-20 09:15:00
3:35 AM,19.4,16.7,89,29.94,10.0,NE,8.1,-,N/A,,Overcast,40,2013-12-20 09:35:00
3:55 AM,19.2,16.5,89,29.93,10.0,NE,9.2,-,N/A,,Overcast,50,2013-12-20 09:55:00
4:15 AM,19.2,16.3,89,29.92,10.0,NE,6.9,-,N/A,,Overcast,50,2013-12-20 10:15:00
4:35 AM,19.2,16.3,89,29.92,2.5,NE,6.9,-,N/A,Snow,Light Snow,50,2013-12-20 10:35:00
4:55 AM,19.0,16.5,90,29.94,4.0,NNE,6.9,-,N/A,Snow,Light Snow,30,2013-12-20 10:55:00
5:15 AM,18.9,16.2,89,29.94,2.0,NE,4.6,-,N/A,Snow,Light Snow,50,2013-12-20 11:15:00
5:35 AM,18.5,16.2,91,29.93,1.5,ENE,5.8,-,N/A,Snow,Light Snow,60,2013-12-20 11:35:00
5:55 AM,18.5,16.2,91,29.93,2.5,NE,5.8,-,N/A,Snow,Light Snow,40,2013-12-20 11:55:00
6:15 AM,18.5,16.2,91,29.93,3.0,ENE,6.9,-,N/A,Snow,Light Snow,60,2013-12-20 12:15:00
6:35 AM,18.5,15.8,89,29.92,3.0,ENE,4.6,-,N/A,Snow,Light Snow,60,2013-12-20 12:35:00
6:55 AM,18.9,16.3,90,29.93,1.8,NE,4.6,-,N/A,Snow,Light Snow,50,2013-12-20 12:55:00
7:15 AM,18.9,16.3,90,29.93,2.0,NNE,5.8,-,N/A,Snow,Light Snow,30,2013-12-20 13:15:00
7:35 AM,19.0,16.5,90,29.93,3.0,NE,4.6,-,N/A,Snow,Light Snow,50,2013-12-20 13:35:00
7:55 AM,19.2,16.7,90,29.93,2.0,NE,3.5,-,N/A,Snow,Light Snow,40,2013-12-20 13:55:00
8:15 AM,19.4,16.7,89,29.93,2.5,NE,4.6,-,N/A,Snow,Light Snow,50,2013-12-20 14:15:00
8:35 AM,19.4,16.7,89,29.93,2.0,NE,4.6,-,N/A,Snow,Light Snow,40,2013-12-20 14:35:00
8:55 AM,19.4,16.9,90,29.92,2.5,NE,4.6,-,N/A,Snow,Light Snow,40,2013-12-20 14:55:00
9:15 AM,19.8,16.9,89,29.93,2.0,NNE,3.5,-,N/A,Snow,Light Snow,30,2013-12-20 15:15:00
9:35 AM,19.9,16.7,87,29.94,2.0,NE,3.5,-,N/A,Snow,Light Snow,40,2013-12-20 15:35:00
9:55 AM,20.3,17.4,89,29.94,4.0,NE,5.8,-,N/A,Snow,Light Snow,40,2013-12-20 15:55:00
10:15 AM,20.8,17.4,87,29.95,3.0,NNE,3.5,-,N/A,Snow,Light Snow,30,2013-12-20 16:15:00
10:35 AM,20.8,17.6,87,29.94,1.5,NE,3.5,-,N/A,Snow,Light Snow,40,2013-12-20 16:35:00
10:55 AM,21.2,17.4,85,29.92,4.0,NE,5.8,-,N/A,Snow,Light Snow,50,2013-12-20 16:55:00
11:15 AM,21.9,18.1,85,29.91,7.0,NE,6.9,-,N/A,,Clear,40,2013-12-20 17:15:00
11:35 AM,21.9,18.0,85,29.90,10.0,NE,4.6,-,N/A,,Clear,50,2013-12-20 17:35:00
11:55 AM,21.7,17.6,84,29.90,10.0,NE,6.9,-,N/A,,Clear,40,2013-12-20 17:55:00
12:15 PM,21.7,17.6,84,29.89,10.0,NNE,6.9,-,N/A,,Clear,30,2013-12-20 18:15:00
12:35 PM,21.7,17.8,85,29.90,10.0,NNE,4.6,-,N/A,,Clear,20,2013-12-20 18:35:00
12:55 PM,21.7,18.1,86,29.89,10.0,NNE,4.6,-,N/A,,Clear,30,2013-12-20 18:55:00
1:15 PM,21.9,18.3,86,29.87,10.0,NNE,4.6,-,N/A,,Clear,20,2013-12-20 19:15:00
1:35 PM,22.1,18.5,86,29.87,10.0,NE,3.5,-,N/A,,Clear,40,2013-12-20 19:35:00
1:55 PM,22.1,18.5,86,29.86,10.0,NE,4.6,-,N/A,,Clear,40,2013-12-20 19:55:00
2:15 PM,22.5,19.2,87,29.87,10.0,NNE,3.5,-,N/A,,Clear,30,2013-12-20 20:15:00
2:35 PM,22.5,19.2,87,29.86,10.0,NNE,3.5,-,N/A,,Clear,30,2013-12-20 20:35:00
2:55 PM,22.6,19.9,89,29.86,7.0,North,4.6,-,N/A,,Clear,10,2013-12-20 20:55:00
2:56 PM,21.2,19.4,93,29.87,7.0,NNE,4.6,-,N/A,,Clear,20,2013-12-20 20:56:00
3:15 PM,22.5,20.1,91,29.87,5.0,NNE,5.8,-,N/A,,Clear,30,2013-12-20 21:15:00
3:35 PM,22.5,20.1,91,29.87,7.0,NNE,3.5,-,N/A,,Clear,20,2013-12-20 21:35:00
3:55 PM,22.1,20.3,93,29.87,7.0,NNE,3.5,-,N/A,,Clear,20,2013-12-20 21:55:00
4:15 PM,22.1,20.3,93,29.87,10.0,North,3.5,-,N/A,,Clear,10,2013-12-20 22:15:00
4:35 PM,22.1,21.2,96,29.87,10.0,NNE,3.5,-,N/A,,Clear,20,2013-12-20 22:35:00
4:55 PM,21.9,21.2,97,29.87,10.0,NNE,4.6,-,N/A,,Clear,20,2013-12-20 22:55:00
5:15 PM,21.9,21.2,97,29.88,10.0,North,3.5,-,N/A,,Clear,360,2013-12-20 23:15:00
5:35 PM,21.9,21.2,97,29.88,10.0,North,3.5,-,N/A,,Clear,10,2013-12-20 23:35:00
5:55 PM,21.7,21.2,98,29.88,10.0,Calm,Calm,-,N/A,,Clear,0,2013-12-20 23:55:00
6:15 PM,21.9,21.2,97,29.88,5.0,Calm,Calm,-,N/A,,Clear,0,2013-12-21 00:15:00
6:35 PM,21.9,21.2,97,29.88,5.0,Calm,Calm,-,N/A,,Clear,0,2013-12-21 00:35:00
6:55 PM,21.9,21.2,97,29.89,10.0,Calm,Calm,-,N/A,,Clear,0,2013-12-21 00:55:00
7:15 PM,21.7,21.0,97,29.89,7.0,Calm,Calm,-,N/A,,Clear,0,2013-12-21 01:15:00
7:35 PM,21.7,21.0,97,29.88,7.0,Calm,Calm,-,N/A,,Clear,0,2013-12-21 01:35:00
7:55 PM,21.7,21.2,98,29.88,5.0,Calm,Calm,-,N/A,,Clear,0,2013-12-21 01:55:00
8:15 PM,21.6,20.8,97,29.88,7.0,Calm,Calm,-,N/A,,Clear,0,2013-12-21 02:15:00
8:35 PM,21.6,20.8,97,29.87,7.0,North,3.5,-,N/A,,Clear,10,2013-12-21 02:35:00
8:55 PM,21.2,20.8,99,29.87,7.0,Calm,Calm,-,N/A,,Clear,0,2013-12-21 02:55:00
9:15 PM,21.2,21.0,99,29.86,7.0,Calm,Calm,-,N/A,,Clear,0,2013-12-21 03:15:00
9:35 PM,21.2,21.0,99,29.85,7.0,Calm,Calm,-,N/A,,Clear,0,2013-12-21 03:35:00
9:55 PM,21.2,21.2,100,29.85,10.0,Calm,Calm,-,N/A,,Clear,0,2013-12-21 03:55:00
10:15 PM,21.2,21.0,99,29.84,10.0,Calm,Calm,-,N/A,,Clear,0,2013-12-21 04:15:00
10:35 PM,21.2,21.0,99,29.84,10.0,Calm,Calm,-,N/A,,Clear,0,2013-12-21 04:35:00
10:55 PM,21.2,21.0,99,29.83,10.0,Calm,Calm,-,N/A,,Clear,0,2013-12-21 04:55:00
11:15 PM,21.2,21.0,99,29.82,10.0,Calm,Calm,-,N/A,,Clear,0,2013-12-21 05:15:00
11:35 PM,21.6,21.0,98,29.84,10.0,Calm,Calm,-,N/A,,Clear,0,2013-12-21 05:35:00
11:55 PM,21.2,20.8,99,29.83,10.0,Calm,Calm,-,N/A,,Clear,0,2013-12-21 05:55:00